Trinidad, CO

7:14 PM MST on November 14, 2019 (GMT -0700)
Stokes

Weather History for KTAD - September, 2019

Change the Weather History Date:

Monday, September 16, 2019

  Actual Average Record
Temperature  
Mean Temperature 74 °F 64 °F  
Max Temperature 85 °F 80 °F 93 °F (2018)
Min Temperature 62 °F 49 °F 33 °F (1965)
Degree Days  
Heating Degree Days 0 3  
Month to date heating degree days 2 28  
Since 1 July heating degree days 2 38  
Cooling Degree Days 9 2  
Month to date cooling degree days 145 58  
Year to date cooling degree days 981 700  
Growing Degree Days 24 (Base 50)    
Moisture  
Dew Point 47 °F    
Average Humidity 42    
Maximum Humidity 56    
Minimum Humidity 27    
Precipitation  
Precipitation T in 0.05 in 0.39 in (2001)
Month to date precipitation 0.67 0.76  
Sea Level Pressure  
Sea Level Pressure 29.83 in    
Wind  
Wind Speed 14 mph (SW)    
Max Wind Speed 28 mph    
Max Gust Speed 40 mph    
Visibility 10 miles    
Events      
T = Trace of Precipitation, MM = Missing Value Source: NWS Daily Summary

Daily Weather History Graph

Daily Weather History Graph

Search for Another Location

Airport or City:

Astronomy

Sep. 16, 2019 Rise Set
Actual Time 6:40 AM MDT 7:03 PM MDT
Civil Twilight 6:13 AM MDT 7:29 PM MDT
Nautical Twilight 5:43 AM MDT 8:00 PM MDT
Astronomical Twilight 5:12 AM MDT 8:31 PM MDT
Moon 8:42 PM MDT (9/16) 8:47 AM MDT (9/16)
Length of Visible Light 13h 15m
Length of Day
12h 23m
Waning Gibbous, 94% of the Moon is Illuminated
Sep 16
Waning Gibbous
Sep 21
Last Quarter
Sep 28
New
Oct 5
First Quarter
Oct 13
Full

Hourly Weather History & Observations

Time (MDT) Temp. Dew Point Humidity Pressure Visibility Wind Dir Wind Speed Gust Speed Precip Events Conditions
12:54 AM 71.1 °F 45.0 °F 39% 29.85 in 10.0 mi SW 23.0 mph 33.4 mph N/A   Clear
1:54 AM 70.0 °F 44.1 °F 39% 29.87 in 10.0 mi SW 25.3 mph 38.0 mph N/A   Partly Cloudy
2:54 AM 69.1 °F 45.0 °F 42% 29.87 in 10.0 mi WSW 21.9 mph 27.6 mph N/A   Mostly Cloudy
3:54 AM 69.1 °F 46.0 °F 44% 29.88 in 10.0 mi WSW 19.6 mph 33.4 mph N/A   Mostly Cloudy
4:54 AM 66.9 °F 46.9 °F 49% 29.88 in 10.0 mi West 17.3 mph 29.9 mph N/A   Clear
5:54 AM 66.9 °F 48.0 °F 51% 29.90 in 10.0 mi West 12.7 mph 19.6 mph N/A   Clear
6:54 AM 66.9 °F 48.0 °F 51% 29.91 in 10.0 mi Calm Calm - 0.00 in   Mostly Cloudy
7:54 AM 66.9 °F 48.9 °F 52% 29.91 in 10.0 mi WNW 12.7 mph - N/A   Mostly Cloudy
8:54 AM 72.0 °F 50.0 °F 46% 29.89 in 10.0 mi West 15.0 mph 24.2 mph N/A   Clear
9:54 AM 75.0 °F 50.0 °F 41% 29.89 in 10.0 mi WNW 9.2 mph 19.6 mph N/A   Clear
10:54 AM 79.0 °F 48.0 °F 34% 29.88 in 10.0 mi SSW 18.4 mph 28.8 mph N/A   Partly Cloudy
11:54 AM 80.1 °F 50.0 °F 35% 29.84 in 10.0 mi SSW 12.7 mph 24.2 mph N/A   Clear
12:54 PM 80.1 °F 48.9 °F 34% 29.81 in 10.0 mi SSE 12.7 mph 21.9 mph N/A   Mostly Cloudy
1:54 PM 79.0 °F 48.9 °F 35% 29.80 in 10.0 mi South 19.6 mph 27.6 mph N/A   Overcast
2:54 PM 82.0 °F 46.0 °F 28% 29.77 in 10.0 mi WSW 13.8 mph 20.7 mph N/A   Overcast
3:54 PM 84.0 °F 46.9 °F 27% 29.74 in 10.0 mi South 20.7 mph 28.8 mph N/A   Mostly Cloudy
4:54 PM 81.0 °F 45.0 °F 28% 29.75 in 10.0 mi SSW 13.8 mph - N/A   Mostly Cloudy
5:54 PM 80.1 °F 45.0 °F 29% 29.75 in 10.0 mi SW 18.4 mph 27.6 mph N/A   Mostly Cloudy
6:54 PM 77.0 °F 45.0 °F 32% 29.77 in 10.0 mi SSW 10.4 mph - N/A   Partly Cloudy
7:54 PM 73.0 °F 46.0 °F 38% 29.79 in 10.0 mi SW 10.4 mph - N/A   Partly Cloudy
8:54 PM 69.1 °F 46.0 °F 44% 29.79 in 10.0 mi SSW 9.2 mph - N/A   Clear
9:54 PM 66.9 °F 46.0 °F 47% 29.81 in 10.0 mi West 8.1 mph - N/A   Clear
10:54 PM 63.0 °F 46.0 °F 54% 29.82 in 10.0 mi WSW 11.5 mph - N/A   Clear
11:54 PM 64.0 °F 46.0 °F 52% 29.79 in 10.0 mi SW 11.5 mph - N/A   Clear